Location: Moscow
(55.7500°N, 37.5830°E)
Time: 17:20:38
(UTC+03:00)

Transit 2A - Pass Details

Date: 08 December 2021
Orbit: 591 x 967 km, 66.7° (Epoch: 21 January)

Event Time Altitude Azimuth Distance (km) Brightness Sun altitude
Rises 22:51:17 0° 181° (S) 3,360 - -53.1°
Reaches altitude 10° 22:53:54 10° 171° (S) 2,489 - -53.3°
Maximum altitude 22:58:52 30° 112° (ESE) 1,567 - -53.7°
Drops below altitude 10° 23:04:11 10° 54° (NE) 2,671 - -54.1°
Sets 23:07:05 0° 45° (NE) 3,647 - -54.3°
